Wind_Speed
6 6 6 6 7 7 8 9 10 10 9 8 8 9 9 11 12 12 12 12 13 13 14 14 14 15 15 15 16 16 16 16 17 17 17 17 17 17 17 17 17 18
6 6 6 6 7 8 8 9 9 9 9 9 8 9 9 10 11 11 12 13 13 14 14 15 15 16 16 17 17 18 18 18 18 18 18 18 18 18 18 18 18 19
6 6 6 5 6 8 10 10 9 9 9 9 9 9 9 10 10 11 11 12 13 14 15 16 16 17 17 18 18 18 18 18 18 18 18 18 18 18 18 18 18 19
8 7 6 6 7 9 10 10 10 10 10 9 9 9 10 11 12 12 12 12 12 13 15 16 17 17 18 18 18 18 18 18 18 18 18 17 17 17 17 17 18 18
11 10 8 8 8 10 11 11 11 11 11 10 10 10 10 12 13 13 13 13 13 13 14 15 16 17 18 18 18 18 19 19 18 18 18 18 17 17 16 16 16 17
14 13 12 12 11 12 13 12 12 13 13 13 13 12 12 13 13 14 14 14 14 14 15 15 16 17 17 17 18 18 18 19 18 18 18 18 17 17 16 15 15 16
16 16 15 15 15 16 16 15 15 15 15 15 16 15 15 16 16 15 15 15 15 15 16 17 17 17 17 17 18 18 18 18 18 18 18 17 17 16 16 16 16 16
18 18 18 18 19 19 19 19 19 18 18 18 18 18 19 19 19 18 17 17 16 16 17 18 18 18 18 18 18 19 19 19 18 18 18 17 17 17 17 18 18 19
20 19 20 20 21 22 23 23 23 22 22 22 22 22 23 23 23 22 20 20 19 19 19 18 19 19 20 20 19 19 19 19 19 19 18 18 18 18 19 19 20 21
23 21 21 22 23 24 25 26 27 27 26 26 26 27 27 26 26 25 24 23 22 22 22 20 20 20 20 20 20 20 20 20 20 19 19 19 20 21 21 22 23 23
25 22 22 23 24 26 28 29 30 30 31 30 31 31 31 30 29 28 27 26 26 26 25 24 23 23 22 22 21 21 22 22 21 21 21 22 22 23 24 25 25 25
29 26 23 23 25 28 30 32 33 34 34 34 35 35 35 34 33 32 30 29 29 29 29 28 27 26 25 24 23 23 24 24 24 24 24 25 25 26 26 27 27 28
33 30 25 24 25 29 33 35 36 36 37 38 38 38 38 38 36 35 33 32 32 32 31 30 30 29 28 26 26 26 26 26 26 26 27 27 27 28 28 29 29 30
33 32 31 29 28 32 37 39 36 36 39 41 42 42 41 40 39 38 37 35 35 34 33 33 33 32 31 29 28 28 28 28 28 29 29 29 29 29 30 31 31 31
32 32 33 34 33 35 39 41 37 36 39 42 44 46 44 42 42 41 40 38 37 36 35 34 34 34 33 31 30 30 30 31 30 30 31 31 31 31 32 33 33 33
32 32 33 36 38 38 39 40 38 38 42 44 45 46 46 44 43 43 42 41 39 38 37 37 36 34 33 32 32 32 32 32 32 32 32 33 33 33 33 33 34 34
32 32 33 36 39 40 41 40 39 40 44 46 45 44 44 44 45 45 44 42 41 41 41 40 37 35 33 32 32 33 33 34 34 34 34 34 34 35 35 34 35 35
31 31 32 35 38 40 40 40 40 41 42 43 44 44 43 43 45 46 45 44 43 43 42 40 37 35 33 32 33 34 34 35 35 35 35 35 36 36 36 36 36 36
31 30 30 31 33 35 37 38 41 42 42 41 43 46 45 42 42 45 46 46 46 45 43 40 37 35 33 33 34 34 35 35 36 36 36 37 37 37 37 38 38 38
36 33 31 30 30 31 32 34 37 39 41 42 43 46 48 46 43 44 47 48 47 46 43 40 37 35 35 35 35 35 36 37 38 38 38 38 38 38 38 39 40 40
38 38 36 35 33 31 30 31 33 35 37 40 43 46 48 49 47 46 47 47 46 45 43 40 37 36 36 36 36 36 37 38 39 39 40 39 39 39 40 41 41 42
37 37 38 38 37 36 35 33 34 34 34 36 41 45 48 50 50 47 46 46 45 43 41 38 36 36 37 37 37 38 38 39 40 40 41 41 41 41 41 42 43 44
37 36 36 36 36 37 37 35 35 36 35 35 40 45 48 49 49 47 46 44 41 38 37 35 35 36 37 37 38 39 39 40 41 41 42 42 42 42 42 43 44 45
36 36 35 35 33 32 32 32 33 36 38 39 42 45 48 50 49 46 42 38 33 31 31 33 34 35 36 37 38 39 40 41 41 42 42 43 43 44 44 44 45 46
34 34 33 33 32 29 28 29 32 36 39 41 44 46 48 49 46 40 35 31 28 27 29 31 33 35 36 37 38 39 40 41 42 43 44 44 45 45 46 46 46 47
33 33 32 31 30 28 27 30 34 37 41 44 46 47 45 40 36 34 31 28 27 27 29 31 33 34 35 36 37 38 40 42 43 44 45 46 46 47 47 47 47 48
Wind_Direction
308 302 288 277 285 299 311 318 321 321 323 324 323 322 320 314 308 304 300 294 289 284 280 276 274 272 271 270 270 269 267 266 264 263 263 263 263 264 266 267 268 269
303 303 293 277 281 292 299 306 314 317 322 324 319 319 322 319 315 310 304 299 295 290 286 282 279 276 274 272 271 270 268 267 267 266 266 266 266 266 266 268 268 269
294 301 301 284 277 280 284 293 302 308 319 326 322 319 320 320 317 311 305 301 297 293 289 286 283 280 278 275 273 271 269 268 267 267 268 268 269 270 270 271 271 271
286 290 298 289 271 270 276 285 292 298 308 318 322 323 323 322 320 314 306 299 296 293 289 286 284 281 279 277 275 273 272 270 269 268 268 268 269 271 273 275 276 276
278 278 280 279 268 264 271 279 283 287 293 300 307 313 316 320 322 320 313 303 295 292 288 285 282 279 278 276 275 274 272 271 269 268 268 267 267 268 270 272 275 277
259 267 268 268 266 263 267 271 273 278 282 286 290 295 301 306 312 317 318 312 302 293 289 286 283 280 279 278 278 276 275 273 273 272 271 270 269 268 268 269 271 273
244 254 259 260 260 260 262 263 266 271 274 277 280 284 288 292 299 306 312 314 310 300 292 287 285 284 283 283 282 280 277 274 274 273 273 272 272 273 275 277 278 280
243 244 251 255 256 256 258 260 261 265 266 270 274 276 279 283 288 295 302 308 311 307 300 293 289 287 286 285 284 282 279 275 272 270 269 270 272 275 279 282 285 287
256 248 247 250 253 254 255 256 258 261 263 265 268 270 273 277 282 288 293 299 303 305 305 302 296 292 289 287 284 282 281 278 273 269 267 268 270 272 276 278 280 282
265 259 251 249 252 255 256 256 256 258 261 263 265 268 270 273 278 283 287 292 297 299 302 304 302 297 293 291 288 285 283 281 277 274 272 271 271 273 274 275 275 276
258 258 255 254 254 255 256 257 256 257 258 261 264 266 268 270 274 278 283 287 292 295 299 302 303 300 298 295 293 289 286 284 282 280 278 276 276 276 276 276 276 276
257 255 253 254 255 256 257 257 257 256 256 258 262 265 267 269 272 275 279 283 287 291 295 299 300 300 300 299 296 293 290 288 286 283 281 279 278 278 278 278 278 279
263 259 252 250 252 256 258 255 253 255 256 257 260 263 265 268 271 273 276 279 282 286 290 294 295 297 299 299 299 296 292 289 287 283 281 281 281 281 281 281 281 281
263 260 254 250 247 251 256 255 250 251 255 258 259 260 262 266 269 271 272 274 277 281 285 289 291 293 296 297 297 296 292 289 287 284 283 282 283 284 283 282 282 282
256 257 256 252 248 248 255 259 257 252 252 256 260 259 260 264 268 268 269 270 274 278 281 284 285 288 292 294 295 293 291 290 288 286 285 284 284 284 284 283 283 283
251 252 253 252 250 249 254 261 264 258 253 253 257 258 258 262 267 267 267 268 270 274 277 279 281 284 287 290 292 292 291 290 289 288 286 285 285 284 283 283 283 283
253 251 250 250 251 251 254 259 264 263 257 252 252 254 257 261 264 265 265 266 267 270 273 275 277 281 284 287 289 290 290 290 289 288 287 286 286 285 284 284 283 283
262 259 254 251 252 254 257 260 262 265 263 257 251 252 255 260 263 263 263 264 266 268 270 272 274 278 282 284 286 288 289 289 288 288 287 287 287 286 285 284 284 284
264 265 262 258 257 257 259 260 261 263 265 262 254 251 254 258 261 263 263 263 265 267 269 272 275 278 280 283 285 288 289 289 288 288 287 287 287 287 286 285 285 285
260 262 264 264 262 262 261 262 263 264 263 259 251 247 251 255 257 259 260 261 263 266 269 272 275 278 280 283 286 288 289 289 288 288 288 287 287 286 286 286 286 286
261 261 262 262 263 265 266 265 267 270 268 260 250 245 248 252 253 254 256 258 262 265 267 271 274 278 281 283 286 287 287 288 288 287 287 286 286 285 285 286 286 287
261 261 261 262 262 264 265 265 266 269 270 262 254 252 255 254 252 252 254 256 258 261 265 270 274 278 280 283 285 286 286 286 286 286 286 286 285 286 286 287 288 289
259 260 261 262 262 263 264 263 261 262 264 261 255 256 257 254 251 251 251 251 253 257 263 269 274 277 280 282 284 285 286 286 286 286 287 287 287 288 288 289 290 291
258 259 260 261 261 261 260 259 258 259 260 258 254 253 253 251 248 247 246 246 249 256 263 270 274 277 280 282 284 286 287 287 288 288 289 289 289 290 291 291 291 292
258 257 258 259 260 258 256 255 257 257 257 256 254 251 250 248 245 243 242 244 250 258 266 272 276 278 280 282 284 286 288 288 289 290 290 291 291 292 292 292 292 292
257 255 257 258 258 257 253 251 251 252 252 252 249 244 241 240 240 242 246 250 255 263 270 274 277 280 282 284 287 288 289 290 291 291 292 292 292 292 293 293 293 293
Height
3115 3114 3114 3115 3115 3116 3116 3116 3116 3115 3114 3114 3113 3112 3112 3111 3110 3110 3110 3110 3110 3110 3110 3111 3111 3111 3111 3111 3112 3112 3112 3112 3113 3113 3113 3114 3114 3115 3115 3116 3117 3117
3114 3114 3114 3114 3114 3115 3115 3115 3115 3115 3114 3113 3112 3112 3111 3111 3110 3110 3109 3109 3109 3109 3109 3109 3109 3109 3109 3110 3110 3110 3110 3110 3111 3111 3111 3111 3112 3112 3113 3113 3114 3114
3113 3113 3113 3113 3113 3114 3114 3114 3114 3114 3113 3113 3112 3111 3111 3110 3110 3109 3109 3109 3108 3108 3107 3107 3107 3107 3108 3108 3108 3108 3108 3108 3108 3109 3109 3109 3109 3110 3110 3111 3111 3111
3112 3112 3112 3112 3112 3112 3113 3113 3113 3113 3112 3112 3111 3111 3110 3110 3109 3109 3108 3108 3108 3107 3107 3106 3106 3106 3106 3105 3105 3106 3106 3106 3106 3107 3107 3107 3108 3108 3108 3108 3108 3108
3111 3111 3111 3111 3111 3111 3111 3111 3111 3111 3110 3110 3110 3110 3109 3109 3108 3108 3108 3107 3107 3107 3106 3106 3105 3105 3104 3104 3104 3104 3104 3104 3104 3105 3105 3106 3106 3106 3106 3106 3106 3106
3109 3109 3109 3109 3109 3109 3109 3109 3109 3109 3108 3108 3108 3108 3107 3107 3107 3107 3107 3106 3106 3106 3105 3105 3104 3104 3103 3103 3103 3102 3102 3102 3102 3102 3103 3103 3103 3104 3104 3104 3104 3104
3106 3107 3107 3108 3108 3107 3107 3107 3107 3107 3106 3106 3105 3105 3105 3105 3105 3105 3105 3105 3104 3104 3104 3103 3103 3103 3102 3102 3102 3101 3101 3101 3101 3100 3100 3100 3101 3101 3101 3101 3101 3101
3103 3104 3104 3105 3105 3105 3105 3105 3105 3104 3104 3103 3103 3102 3102 3102 3102 3102 3103 3103 3103 3103 3102 3102 3102 3101 3101 3101 3101 3101 3100 3100 3100 3099 3099 3099 3099 3098 3098 3098 3098 3098
3100 3101 3101 3102 3102 3102 3102 3102 3102 3102 3101 3101 3100 3099 3099 3099 3099 3099 3100 3100 3100 3100 3100 3100 3100 3100 3099 3099 3099 3099 3099 3099 3098 3098 3098 3098 3097 3097 3096 3096 3095 3095
3096 3097 3097 3098 3098 3099 3099 3099 3099 3099 3098 3098 3097 3097 3096 3096 3096 3096 3097 3097 3097 3097 3097 3097 3097 3097 3097 3097 3097 3097 3097 3097 3096 3096 3096 3096 3095 3095 3094 3094 3093 3093
3092 3093 3093 3093 3094 3095 3095 3095 3095 3095 3095 3094 3094 3094 3094 3094 3093 3093 3094 3094 3094 3094 3094 3094 3093 3093 3093 3093 3093 3094 3094 3094 3094 3094 3093 3093 3093 3092 3092 3091 3090 3090
3087 3088 3089 3090 3090 3090 3091 3091 3091 3091 3090 3090 3090 3090 3090 3091 3091 3091 3091 3091 3091 3090 3090 3090 3090 3089 3089 3089 3089 3089 3090 3090 3090 3090 3090 3089 3089 3089 3088 3088 3087 3087
3083 3084 3085 3085 3086 3086 3086 3086 3086 3087 3087 3087 3087 3086 3086 3087 3088 3088 3088 3088 3087 3087 3087 3086 3086 3085 3085 3085 3085 3085 3086 3086 3086 3085 3085 3085 3085 3085 3084 3084 3084 3083
3080 3080 3081 3081 3081 3080 3080 3081 3082 3083 3083 3083 3082 3082 3082 3083 3083 3084 3084 3084 3084 3083 3083 3083 3082 3081 3081 3081 3081 3081 3081 3081 3081 3081 3081 3081 3081 3080 3080 3079 3079 3079
3075 3075 3076 3076 3075 3075 3075 3076 3078 3079 3078 3078 3078 3078 3079 3079 3079 3080 3080 3080 3080 3080 3080 3079 3078 3078 3078 3077 3077 3077 3076 3076 3076 3076 3076 3076 3076 3075 3075 3075 3074 3074
3069 3069 3070 3071 3070 3070 3070 3071 3073 3073 3072 3072 3073 3074 3074 3075 3075 3075 3076 3076 3076 3076 3076 3075 3074 3074 3074 3074 3073 3072 3072 3071 3071 3071 3071 3070 3070 3070 3070 3069 3069 3068
3063 3064 3065 3065 3066 3066 3066 3066 3067 3067 3066 3066 3067 3069 3070 3071 3071 3071 3071 3072 3072 3072 3071 3070 3071 3071 3070 3070 3068 3068 3067 3067 3066 3066 3065 3065 3065 3064 3064 3064 3063 3062
3058 3059 3060 3060 3061 3062 3062 3062 3061 3061 3061 3062 3063 3064 3065 3066 3067 3067 3067 3068 3068 3067 3066 3066 3067 3067 3067 3065 3064 3063 3063 3062 3061 3060 3060 3059 3059 3058 3058 3058 3057 3056
3053 3054 3054 3055 3056 3057 3058 3057 3056 3055 3056 3057 3058 3058 3059 3060 3062 3063 3063 3064 3063 3063 3062 3063 3063 3063 3062 3061 3060 3059 3058 3057 3056 3055 3055 3054 3053 3053 3052 3051 3051 3050
3048 3049 3050 3050 3051 3052 3052 3053 3052 3051 3051 3052 3052 3053 3053 3055 3056 3058 3058 3059 3059 3059 3059 3060 3059 3058 3057 3056 3055 3054 3053 3052 3052 3051 3050 3049 3048 3047 3046 3045 3045 3044
3043 3044 3044 3045 3046 3047 3047 3048 3047 3047 3047 3047 3047 3047 3048 3050 3051 3052 3052 3053 3054 3055 3056 3056 3055 3054 3052 3052 3051 3050 3049 3048 3047 3046 3045 3044 3042 3041 3040 3039 3038 3037
3037 3038 3039 3040 3041 3041 3042 3042 3043 3042 3043 3043 3044 3044 3044 3045 3046 3046 3047 3049 3050 3051 3052 3051 3050 3049 3048 3047 3046 3045 3044 3042 3041 3040 3039 3038 3037 3036 3034 3033 3032 3030
3031 3032 3033 3034 3035 3035 3036 3036 3037 3038 3038 3038 3039 3040 3040 3041 3041 3041 3042 3044 3046 3047 3047 3046 3045 3044 3044 3043 3042 3040 3038 3037 3036 3035 3034 3032 3031 3030 3028 3027 3025 3023
3025 3026 3027 3028 3028 3030 3031 3031 3032 3033 3033 3033 3034 3034 3035 3035 3036 3036 3038 3039 3041 3041 3042 3042 3041 3040 3039 3038 3036 3035 3033 3032 3030 3029 3028 3027 3025 3023 3022 3020 3019 3017
3020 3021 3022 3022 3023 3025 3026 3027 3027 3028 3029 3029 3029 3030 3030 3030 3031 3033 3034 3035 3036 3036 3037 3037 3036 3035 3034 3033 3032 3030 3028 3026 3025 3023 3022 3020 3018 3016 3015 3013 3011 3010
3015 3016 3017 3018 3019 3020 3022 3022 3022 3023 3024 3024 3024 3025 3026 3027 3029 3031 3031 3030 3031 3032 3032 3032 3031 3030 3029 3028 3026 3025 3022 3020 3019 3017 3015 3013 3011 3009 3007 3005 3004 3002